Temp
69 66 66 66 66 67 68 67 69 68 68 69 69 70 70 71 70 69 69 69 70 71 71 70 67 66 66 66 67 69 70 69 68 66 65 65 63 63 66 65 64 64 67 67 68 67 65 60 61 65 67 65 65 65 66 66 67 69 69 69 72 71 70
68 67 67 68 67 67 67 67 68 69 68 67 69 69 69 70 70 70 70 71 70 71 72 71 68 69 68 67 68 69 69 68 68 68 66 65 65 64 64 62 65 65 63 65 66 68 66 63 62 63 63 66 66 65 65 66 67 67 66 67 69 69 68
67 66 68 66 66 68 67 66 67 68 69 68 67 68 68 69 69 69 70 69 69 70 70 70 68 68 67 68 68 69 68 68 68 69 67 66 66 65 66 64 64 63 63 64 65 67 68 68 64 65 65 64 61 63 66 66 67 68 69 68 68 69 68
66 66 66 65 66 67 67 66 67 67 68 68 68 67 67 68 68 69 69 69 69 68 69 70 69 70 68 67 67 67 67 67 68 67 66 66 65 65 66 67 68 67 66 64 64 65 66 65 64 64 66 68 65 61 64 68 68 70 71 70 70 69 69
67 67 67 65 67 67 67 66 66 67 67 67 67 68 66 67 67 67 67 68 68 68 68 69 68 69 68 68 68 68 67 66 66 67 66 65 65 67 67 69 68 69 68 68 69 69 68 67 66 64 65 68 68 67 67 68 71 71 72 72 72 71 71
68 68 68 66 67 67 67 66 67 67 67 67 67 67 66 66 67 68 68 68 68 67 67 68 67 67 68 69 68 67 67 67 67 67 67 66 67 67 67 67 69 69 68 68 69 69 70 70 68 65 67 69 64 65 68 69 67 71 72 72 73 73 73
68 68 68 67 67 68 68 68 68 68 68 67 67 66 66 67 67 66 66 66 66 66 66 65 66 66 67 70 69 68 66 66 66 66 65 65 65 65 67 68 68 68 67 68 68 69 68 68 68 66 64 66 67 66 69 69 71 69 69 72 73 73 72
68 68 68 67 66 66 67 67 67 68 68 68 68 66 67 66 66 66 66 66 65 65 66 65 65 66 66 68 68 65 65 66 66 66 66 65 64 65 66 67 66 67 67 69 69 69 70 69 69 68 66 61 62 65 64 68 68 67 67 69 72 71 71
67 67 66 66 66 67 66 68 67 67 68 67 67 67 66 67 66 66 66 66 66 66 66 66 66 67 66 66 67 66 65 66 65 65 65 65 64 64 65 66 67 67 68 69 70 68 70 69 69 69 69 68 63 60 63 63 65 64 68 68 69 70 70
65 66 66 65 65 65 64 65 67 67 67 68 67 68 67 67 67 68 67 66 66 66 66 66 66 66 66 66 66 65 65 65 66 65 65 65 65 65 66 65 66 67 67 67 68 68 68 68 69 69 71 70 69 65 62 61 61 62 64 67 66 66 69
66 66 65 65 65 63 62 63 64 64 66 67 68 67 68 67 67 67 68 67 66 67 67 67 67 67 67 67 66 66 65 65 65 65 65 66 65 66 66 67 67 67 66 68 67 66 67 67 68 69 69 69 71 68 66 62 59 63 62 64 65 65 67
66 66 66 66 66 64 61 61 63 65 66 66 68 68 68 68 68 67 67 67 67 67 67 67 67 67 68 67 66 66 65 67 67 65 65 65 65 66 66 65 66 66 66 65 66 66 66 68 68 70 69 69 68 68 67 66 60 60 64 61 63 66 66
67 66 66 66 66 66 64 63 64 65 66 68 68 68 69 68 67 67 67 67 67 67 67 66 67 67 67 67 67 67 66 67 67 66 66 66 67 67 66 66 66 66 65 67 66 66 66 66 67 68 68 68 67 67 68 67 63 58 62 62 63 64 65
66 66 66 66 66 67 66 65 65 65 66 66 67 67 68 68 68 67 67 67 68 67 66 66 66 67 67 67 67 66 66 67 67 67 67 65 66 67 68 67 66 64 65 66 66 66 67 67 67 67 68 68 67 67 67 65 62 58 59 62 63 63 63
67 67 66 65 66 68 66 65 64 65 65 66 67 68 69 67 67 67 68 68 67 67 67 66 66 66 67 66 66 65 66 67 67 67 66 67 66 66 66 67 66 65 66 66 65 69 69 68 69 69 68 68 68 65 66 66 64 62 58 61 62 64 63
67 66 65 66 66 67 66 65 66 66 66 66 66 68 68 68 68 68 68 68 69 68 67 67 66 66 65 65 66 65 65 66 66 66 66 66 68 67 66 66 65 65 64 65 64 65 65 67 69 68 65 67 66 65 67 68 65 61 60 59 61 63 61
66 66 65 65 65 66 67 66 66 66 67 67 66 67 68 69 68 68 68 68 68 68 68 67 66 67 66 66 65 65 65 64 65 67 67 68 68 67 67 66 65 65 65 64 64 64 65 65 65 66 65 64 64 64 64 64 66 64 62 60 59 63 62
64 65 65 65 65 66 66 66 66 67 67 67 67 65 64 67 67 68 66 68 67 67 67 67 67 67 66 64 63 63 63 63 63 63 65 67 65 67 67 67 66 66 65 65 63 64 65 63 66 65 65 65 65 63 62 64 65 65 63 61 58 60 61
64 65 65 65 65 66 66 66 66 66 68 68 66 64 63 61 63 66 67 67 67 68 68 67 67 67 67 65 63 61 60 61 62 62 62 61 65 66 66 67 67 66 66 65 64 64 64 63 64 64 64 65 65 63 61 62 63 63 63 62 61 59 60
65 65 65 65 66 66 66 66 66 67 67 67 66 64 61 61 62 65 67 66 65 64 64 65 65 64 64 63 62 61 62 62 61 60 60 62 63 65 66 67 65 65 65 66 64 63 62 61 61 62 62 61 63 62 61 62 63 61 61 60 60 60 60
65 65 65 65 65 65 66 65 65 65 65 65 65 65 65 64 63 64 65 66 65 64 63 65 66 67 66 65 64 64 64 63 63 61 60 62 63 63 64 65 64 63 64 65 65 64 63 62 62 62 61 61 61 61 61 60 61 61 61 60 60 59 60
64 64 64 64 63 63 63 63 63 64 64 65 65 66 66 66 64 63 63 64 64 64 64 65 66 66 66 65 65 64 65 65 64 64 64 65 65 65 66 66 65 63 60 58 55 56 57 57 62 60 59 60 61 61 61 61 61 61 61 61 59 60 60
63 63 62 62 63 62 63 62 62 63 63 64 65 65 66 66 66 64 63 63 62 61 62 63 60 53 55 65 65 64 63 64 64 64 64 65 65 65 66 66 64 58 55 54 51 48 48 49 53 60 60 59 59 60 60 60 60 60 60 60 59 59 59
63 63 63 63 62 62 63 62 62 63 64 63 62 62 63 64 64 65 65 64 63 63 63 64 50 46 45 46 60 64 64 64 64 64 64 64 64 65 66 66 66 59 56 53 54 44 45 45 46 48 49 52 55 61 60 57 57 57 58 59 59 59 58
63 63 63 64 64 64 63 63 64 64 63 62 63 63 62 63 64 63 63 64 64 64 64 53 46 45 44 42 47 62 64 64 63 64 65 65 65 65 65 65 64 63 63 62 61 56 48 44 43 43 43 43 41 40 45 56 56 53 54 57 58 58 57
63 63 63 63 63 63 63 63 63 62 62 62 62 61 63 62 62 63 63 64 63 63 65 46 41 41 42 41 40 50 66 65 64 64 64 64 64 64 64 63 62 62 62 54 58 58 56 52 43 41 41 41 40 40 38 38 42 53 57 56 56 56 57
63 62 62 62 62 62 61 61 61 62 62 59 57 57 56 57 59 60 61 62 62 61 62 44 42 41 41 39 39 43 63 64 65 65 64 63 63 63 64 63 64 63 62 61 61 59 59 57 54 53 54 56 53 46 41 40 40 41 48 55 55 56 56
62 61 61 61 61 61 60 59 59 58 57 57 58 57 57 58 58 58 57 57 59 57 55 39 40 39 39 39 38 43 60 60 61 62 62 61 61 61 63 62 62 63 62 62 61 59 59 58 57 55 54 52 51 51 51 53 54 56 56 56 57 56 55
58 59 61 61 61 61 60 60 60 59 60 60 61 61 61 62 60 57 55 55 56 56 52 38 39 40 39 38 39 54 57 58 60 61 60 59 60 61 61 61 62 62 61 61 51 47 53 59 58 56 53 51 50 50 49 44 40 42 49 53 54 54 54
58 58 58 57 56 59 60 60 60 61 62 62 62 62 60 58 56 55 53 53 56 57 55 44 38 39 39 38 46 60 60 62 61 59 58 58 60 60 60 61 61 61 60 60 46 42 44 50 58 56 54 53 52 53 50 47 42 39 38 38 37 37 37
61 59 58 60 58 57 57 57 56 56 57 57 60 60 58 56 55 56 57 58 59 61 58 45 38 40 38 38 50 62 63 62 59 58 57 57 59 59 54 48 55 60 58 56 39 41 41 53 59 57 55 51 49 47 46 46 46 44 38 38 38 37 38
61 60 60 60 59 58 58 59 59 58 60 61 60 59 60 60 58 57 56 55 49 56 59 50 39 39 38 39 53 63 63 63 59 58 58 56 57 58 55 49 44 50 53 45 38 40 43 53 58 56 54 53 51 49 47 48 48 48 49 49 50 49 46
61 61 62 59 58 57 58 60 59 59 60 63 61 60 59 60 58 56 54 54 53 54 56 56 48 38 40 40 45 62 63 62 59 57 59 58 57 56 56 54 47 38 38 38 38 38 40 44 55 54 54 52 49 46 46 47 48 50 50 50 51 50 50
60 61 62 61 58 57 57 59 58 58 58 58 58 57 56 55 54 53 53 52 54 53 53 55 50 38 40 41 41 49 63 62 60 59 58 58 58 56 56 54 53 41 38 38 39 38 39 40 44 53 53 52 49 47 47 50 46 41 49 49 50 50 51
58 59 59 59 58 57 56 57 56 56 56 55 54 54 52 52 52 52 51 51 52 53 51 46 55 41 39 40 41 43 59 60 60 59 57 57 57 56 55 55 53 42 37 38 38 38 38 39 41 50 45 37 35 37 48 49 50 51 51 50 50 50 50
56 57 58 58 59 61 59 59 58 57 55 54 54 54 53 52 52 52 52 52 52 53 53 52 42 49 39 40 39 42 45 51 44 59 59 57 56 54 55 52 47 38 38 38 38 38 38 38 41 43 35 35 35 35 42 51 49 49 49 49 48 48 49
57 57 57 58 58 59 59 58 58 57 58 58 57 56 56 56 57 57 56 53 51 52 51 54 44 42 44 38 39 39 40 41 44 57 58 57 55 54 54 52 46 37 37 37 37 37 37 40 42 35 36 35 36 40 50 49 49 48 46 47 47 47 48
MSLP
1018.69 1019.33 1019.61 1019.77 1019.85 1019.97 1020.13 1020.21 1020.13 1020.13 1020.05 1019.89 1019.89 1019.93 1019.89 1019.93 1019.97 1020.09 1020.13 1020.17 1020.21 1020.21 1020.21 1020.41 1020.65 1020.73 1020.73 1020.81 1020.69 1020.57 1020.53 1020.61 1020.69 1020.93 1021.09 1021.13 1021.37 1021.57 1021.41 1021.61 1021.73 1021.89 1021.69 1021.57 1021.37 1021.37 1021.61 1022.73 1022.85 1022.45 1022.37 1022.41 1022.29 1022.33 1022.25 1022.13 1022.01 1021.93 1021.93 1021.81 1021.73 1021.69 1021.65
1018.73 1019.21 1019.45 1019.65 1019.85 1019.97 1020.17 1020.29 1020.29 1020.29 1020.25 1020.21 1020.09 1020.09 1020.09 1020.09 1020.13 1020.13 1020.13 1020.17 1020.21 1020.29 1020.25 1020.41 1020.61 1020.65 1020.65 1020.69 1020.65 1020.57 1020.57 1020.65 1020.69 1020.69 1020.89 1021.13 1021.25 1021.41 1021.61 1021.85 1021.73 1021.89 1022.09 1021.93 1021.73 1021.37 1021.61 1022.17 1022.65 1022.61 1022.73 1022.45 1022.41 1022.57 1022.61 1022.45 1022.33 1022.29 1022.25 1022.21 1022.01 1021.93 1021.93
1018.89 1019.29 1019.41 1019.77 1019.93 1020.01 1020.21 1020.41 1020.45 1020.45 1020.37 1020.37 1020.37 1020.33 1020.33 1020.29 1020.33 1020.33 1020.33 1020.41 1020.45 1020.45 1020.41 1020.49 1020.61 1020.69 1020.73 1020.73 1020.69 1020.61 1020.65 1020.69 1020.69 1020.69 1020.89 1021.09 1021.13 1021.25 1021.25 1021.57 1021.77 1022.05 1021.93 1022.05 1021.85 1021.73 1021.45 1021.33 1022.01 1022.33 1022.33 1022.49 1022.85 1023.05 1022.73 1022.65 1022.53 1022.37 1022.29 1022.33 1022.33 1022.25 1022.25
1018.89 1019.17 1019.53 1019.85 1019.97 1020.05 1020.25 1020.45 1020.53 1020.57 1020.53 1020.53 1020.49 1020.61 1020.61 1020.57 1020.57 1020.53 1020.57 1020.61 1020.65 1020.69 1020.69 1020.69 1020.69 1020.73 1020.85 1020.89 1020.93 1020.93 1020.93 1020.89 1020.93 1021.05 1021.13 1021.17 1021.25 1021.37 1021.29 1021.33 1021.37 1021.45 1021.49 1021.81 1021.89 1021.69 1021.57 1021.81 1022.09 1022.41 1022.29 1022.29 1022.69 1023.21 1022.93 1022.65 1022.53 1022.37 1022.29 1022.37 1022.45 1022.49 1022.45
1018.53 1018.89 1019.21 1019.65 1019.77 1020.01 1020.25 1020.49 1020.61 1020.65 1020.69 1020.69 1020.65 1020.69 1020.85 1020.85 1020.81 1020.81 1020.81 1020.85 1020.89 1020.93 1020.97 1020.97 1021.01 1020.97 1021.05 1021.05 1021.05 1021.05 1021.13 1021.21 1021.21 1021.17 1021.25 1021.37 1021.37 1021.37 1021.41 1021.29 1021.33 1021.29 1021.33 1021.37 1021.37 1021.33 1021.37 1021.57 1021.73 1022.25 1022.41 1022.33 1022.49 1022.85 1022.93 1022.61 1022.41 1022.41 1022.41 1022.41 1022.41 1022.49 1022.57
1018.41 1018.69 1019.01 1019.41 1019.61 1019.89 1020.13 1020.41 1020.53 1020.65 1020.73 1020.81 1020.85 1020.89 1021.05 1021.09 1021.01 1021.05 1021.05 1021.09 1021.21 1021.33 1021.37 1021.33 1021.37 1021.37 1021.33 1021.25 1021.33 1021.37 1021.41 1021.45 1021.45 1021.41 1021.45 1021.53 1021.41 1021.37 1021.57 1021.57 1021.45 1021.41 1021.53 1021.49 1021.41 1021.37 1021.29 1021.33 1021.57 1022.13 1022.25 1022.09 1022.77 1022.93 1022.85 1022.61 1022.85 1022.73 1022.61 1022.65 1022.65 1022.69 1022.65
1018.57 1018.77 1019.01 1019.29 1019.57 1019.73 1019.93 1020.21 1020.29 1020.45 1020.65 1020.85 1020.97 1021.05 1021.09 1021.09 1021.25 1021.37 1021.45 1021.49 1021.57 1021.61 1021.65 1021.69 1021.73 1021.73 1021.65 1021.49 1021.53 1021.61 1021.73 1021.81 1021.77 1021.77 1021.85 1021.85 1021.81 1021.77 1021.65 1021.65 1021.69 1021.77 1021.85 1021.81 1021.73 1021.61 1021.61 1021.57 1021.65 1021.93 1022.37 1022.49 1022.53 1022.73 1022.73 1022.65 1022.61 1022.77 1023.05 1022.93 1022.93 1022.93 1023.01
1018.61 1018.85 1019.01 1019.21 1019.53 1019.81 1019.97 1020.09 1020.25 1020.33 1020.53 1020.81 1020.93 1021.05 1021.13 1021.21 1021.33 1021.45 1021.53 1021.57 1021.65 1021.73 1021.77 1021.85 1021.93 1021.93 1021.97 1021.81 1021.81 1022.01 1022.01 1022.05 1022.05 1022.01 1022.09 1022.09 1022.13 1022.09 1021.97 1021.93 1022.01 1022.01 1022.05 1021.93 1021.81 1021.73 1021.57 1021.61 1021.61 1021.85 1022.05 1022.77 1023.05 1022.89 1023.01 1022.89 1023.05 1023.25 1023.33 1023.45 1023.29 1023.29 1023.33
1018.49 1018.69 1018.97 1019.25 1019.45 1019.57 1019.85 1019.89 1020.05 1020.13 1020.33 1020.65 1020.89 1021.01 1021.13 1021.17 1021.33 1021.49 1021.57 1021.65 1021.69 1021.73 1021.77 1021.89 1021.97 1022.05 1022.13 1022.09 1022.17 1022.25 1022.37 1022.37 1022.37 1022.33 1022.33 1022.29 1022.37 1022.37 1022.29 1022.21 1022.09 1022.25 1022.21 1022.17 1022.05 1022.09 1021.93 1021.89 1021.85 1021.89 1021.77 1021.93 1022.45 1023.25 1023.05 1023.25 1023.25 1023.65 1023.45 1023.41 1023.61 1023.69 1023.65
1018.53 1018.53 1018.85 1019.09 1019.33 1019.61 1019.81 1019.93 1019.93 1019.93 1020.13 1020.41 1020.73 1020.89 1021.09 1021.17 1021.25 1021.33 1021.49 1021.61 1021.69 1021.69 1021.77 1021.89 1022.01 1022.13 1022.25 1022.29 1022.37 1022.49 1022.61 1022.65 1022.57 1022.65 1022.57 1022.53 1022.61 1022.53 1022.49 1022.49 1022.41 1022.45 1022.49 1022.49 1022.41 1022.41 1022.33 1022.21 1022.05 1021.97 1021.69 1021.61 1021.65 1022.21 1022.81 1023.25 1023.65 1023.61 1023.89 1023.73 1023.69 1024.01 1023.97
1018.49 1018.61 1018.69 1018.93 1019.17 1019.53 1019.73 1019.93 1020.05 1020.13 1019.97 1020.25 1020.53 1020.81 1020.97 1021.17 1021.25 1021.37 1021.45 1021.61 1021.69 1021.73 1021.81 1021.93 1022.01 1022.17 1022.29 1022.41 1022.53 1022.61 1022.73 1022.73 1022.73 1022.81 1022.81 1022.77 1022.81 1022.69 1022.69 1022.57 1022.53 1022.57 1022.69 1022.57 1022.69 1022.69 1022.57 1022.45 1022.33 1022.21 1022.13 1021.93 1021.73 1021.81 1022.17 1022.73 1023.81 1023.85 1024.05 1024.21 1024.09 1024.13 1024.21
1018.41 1018.69 1018.65 1018.77 1018.93 1019.21 1019.69 1019.69 1020.01 1020.09 1019.89 1020.21 1020.41 1020.65 1020.89 1021.05 1021.21 1021.41 1021.45 1021.61 1021.73 1021.81 1021.89 1022.01 1022.09 1022.17 1022.25 1022.41 1022.57 1022.69 1022.81 1022.73 1022.73 1022.89 1022.93 1022.93 1022.97 1022.89 1022.89 1022.89 1022.81 1022.85 1022.85 1022.89 1022.89 1022.85 1022.81 1022.65 1022.53 1022.33 1022.29 1022.13 1022.17 1022.05 1022.17 1022.49 1023.41 1024.29 1024.13 1024.37 1024.49 1024.45 1024.41
1018.33 1018.61 1018.73 1018.81 1018.89 1019.09 1019.73 1020.01 1019.97 1020.05 1019.97 1020.13 1020.29 1020.49 1020.69 1020.93 1021.13 1021.33 1021.45 1021.57 1021.73 1021.81 1021.89 1022.01 1022.09 1022.17 1022.25 1022.37 1022.49 1022.57 1022.81 1022.81 1022.77 1022.89 1022.93 1022.93 1022.97 1022.93 1023.01 1023.05 1023.09 1023.05 1023.05 1022.93 1023.01 1023.05 1023.05 1023.01 1022.85 1022.65 1022.57 1022.57 1022.53 1022.45 1022.37 1022.41 1022.93 1024.09 1024.45 1024.37 1024.49 1024.57 1024.61
1018.41 1018.53 1018.69 1018.77 1018.85 1019.01 1019.45 1019.85 1020.01 1019.77 1019.81 1020.09 1020.29 1020.45 1020.61 1020.85 1021.13 1021.33 1021.49 1021.69 1021.77 1021.93 1022.01 1022.13 1022.21 1022.25 1022.29 1022.45 1022.53 1022.69 1022.81 1022.81 1022.81 1022.93 1023.01 1023.13 1023.05 1022.97 1022.93 1023.05 1023.21 1023.29 1023.25 1023.09 1023.13 1023.09 1023.05 1023.09 1023.01 1022.97 1022.85 1022.81 1022.89 1022.85 1022.73 1022.85 1023.37 1024.21 1024.81 1024.81 1024.69 1024.69 1024.85
1018.29 1018.49 1018.69 1018.85 1018.97 1019.01 1019.33 1019.77 1020.01 1019.85 1019.85 1020.13 1020.29 1020.37 1020.49 1020.85 1021.09 1021.29 1021.49 1021.65 1021.77 1021.89 1022.01 1022.13 1022.29 1022.33 1022.41 1022.53 1022.65 1022.73 1022.81 1022.89 1022.93 1023.01 1023.05 1023.05 1023.13 1023.13 1023.09 1023.01 1023.09 1023.25 1023.29 1023.25 1023.29 1023.01 1023.09 1023.05 1022.93 1022.89 1022.97 1022.93 1023.01 1023.21 1023.13 1023.01 1023.41 1023.69 1024.45 1024.69 1024.69 1024.73 1024.81
1018.29 1018.53 1018.81 1018.89 1018.93 1018.97 1019.21 1019.57 1019.81 1019.77 1019.81 1020.05 1020.29 1020.41 1020.49 1020.73 1021.01 1021.21 1021.33 1021.45 1021.53 1021.69 1021.81 1022.01 1022.17 1022.29 1022.49 1022.61 1022.69 1022.81 1022.89 1022.93 1023.01 1023.09 1023.17 1023.09 1023.01 1023.05 1023.09 1023.09 1023.17 1023.25 1023.33 1023.33 1023.45 1023.41 1023.37 1023.17 1023.01 1023.13 1023.25 1023.17 1023.25 1023.29 1023.25 1023.17 1023.37 1023.81 1024.13 1024.61 1024.77 1024.57 1024.77
1018.37 1018.53 1018.77 1018.93 1019.05 1019.01 1019.09 1019.45 1019.69 1019.77 1019.77 1019.89 1020.09 1020.33 1020.37 1020.49 1020.77 1021.05 1021.25 1021.37 1021.45 1021.53 1021.69 1021.81 1021.93 1022.05 1022.17 1022.37 1022.73 1022.93 1023.01 1023.05 1023.09 1023.09 1023.05 1023.05 1023.01 1023.09 1022.97 1023.05 1023.17 1023.21 1023.21 1023.29 1023.37 1023.45 1023.41 1023.41 1023.33 1023.33 1023.41 1023.49 1023.49 1023.57 1023.57 1023.53 1023.33 1023.45 1023.85 1024.13 1024.69 1024.33 1024.61
1018.45 1018.57 1018.65 1018.81 1018.97 1019.05 1019.17 1019.37 1019.57 1019.65 1019.69 1019.77 1019.89 1020.13 1020.41 1020.41 1020.53 1020.77 1021.05 1021.25 1021.41 1021.53 1021.61 1021.65 1021.77 1021.89 1022.05 1022.29 1022.45 1022.77 1022.89 1023.05 1023.13 1023.21 1023.33 1023.29 1023.25 1023.01 1022.93 1022.89 1022.97 1023.09 1023.13 1023.17 1023.37 1023.33 1023.41 1023.49 1023.37 1023.41 1023.45 1023.49 1023.53 1023.69 1023.77 1023.65 1023.61 1023.61 1023.73 1023.93 1024.57 1024.85 1024.73
1018.41 1018.53 1018.65 1018.77 1018.81 1018.89 1019.13 1019.33 1019.45 1019.49 1019.49 1019.57 1019.85 1019.97 1020.05 1020.25 1020.45 1020.61 1020.85 1021.09 1021.21 1021.29 1021.37 1021.53 1021.65 1021.77 1021.97 1022.25 1022.49 1022.69 1022.97 1023.21 1023.09 1023.05 1023.33 1023.73 1023.57 1023.33 1023.05 1022.81 1022.81 1022.97 1023.05 1023.09 1023.17 1023.29 1023.41 1023.49 1023.57 1023.53 1023.57 1023.49 1023.57 1023.77 1023.77 1023.85 1023.85 1023.85 1023.85 1024.05 1024.17 1024.53 1024.77
1018.29 1018.41 1018.49 1018.57 1018.61 1018.73 1018.97 1019.17 1019.21 1019.29 1019.45 1019.61 1019.73 1019.89 1020.01 1020.05 1020.05 1020.17 1020.45 1020.73 1020.93 1021.13 1021.25 1021.41 1021.61 1021.77 1021.93 1022.09 1022.33 1022.53 1022.73 1022.81 1023.01 1023.17 1023.21 1023.25 1023.45 1023.33 1023.09 1022.81 1022.85 1022.97 1023.13 1023.05 1023.13 1023.29 1023.45 1023.65 1023.73 1023.65 1023.77 1023.93 1023.81 1023.85 1023.85 1023.77 1023.85 1024.01 1024.09 1024.21 1024.41 1024.37 1024.49
1018.13 1018.17 1018.25 1018.37 1018.57 1018.69 1018.81 1019.01 1019.09 1019.21 1019.45 1019.65 1019.69 1019.77 1019.89 1019.93 1020.01 1020.21 1020.25 1020.37 1020.65 1020.89 1021.05 1021.25 1021.37 1021.49 1021.57 1021.77 1022.01 1022.17 1022.25 1022.37 1022.49 1022.73 1022.89 1022.93 1022.97 1023.09 1022.93 1022.73 1022.77 1022.97 1023.21 1023.29 1023.25 1023.37 1023.45 1023.53 1023.61 1023.73 1023.97 1024.09 1024.05 1024.01 1023.97 1024.01 1023.97 1023.89 1023.97 1024.05 1024.05 1024.25 1024.45
1018.17 1018.25 1018.41 1018.53 1018.69 1018.85 1018.89 1019.01 1019.17 1019.29 1019.49 1019.57 1019.65 1019.65 1019.73 1019.81 1020.09 1020.33 1020.45 1020.49 1020.53 1020.69 1020.89 1021.01 1021.13 1021.29 1021.45 1021.65 1021.81 1021.93 1021.97 1022.01 1022.13 1022.21 1022.29 1022.33 1022.41 1022.45 1022.33 1022.33 1022.49 1022.81 1023.17 1023.21 1023.25 1023.45 1023.49 1023.41 1023.57 1023.77 1024.17 1024.09 1024.01 1023.89 1023.97 1023.89 1023.81 1023.77 1023.81 1023.85 1024.05 1024.21 1024.17
1018.25 1018.37 1018.53 1018.65 1018.77 1018.93 1019.05 1019.17 1019.29 1019.37 1019.45 1019.57 1019.73 1019.85 1019.85 1019.89 1020.01 1020.13 1020.25 1020.45 1020.61 1020.73 1020.89 1020.97 1021.09 1021.41 1021.49 1021.41 1021.53 1021.61 1021.73 1021.81 1021.89 1021.93 1022.01 1022.01 1021.97 1021.97 1021.97 1022.01 1022.13 1022.57 1022.97 1023.09 1023.17 1023.33 1023.33 1023.45 1023.41 1023.37 1023.65 1023.93 1023.93 1023.89 1023.89 1023.85 1023.85 1023.85 1023.81 1023.73 1023.89 1024.05 1023.93
1018.33 1018.45 1018.57 1018.69 1018.85 1018.97 1019.05 1019.21 1019.29 1019.33 1019.41 1019.49 1019.65 1019.89 1019.97 1019.97 1019.97 1019.93 1020.09 1020.29 1020.45 1020.57 1020.69 1020.69 1021.01 1021.33 1021.45 1021.61 1021.57 1021.53 1021.61 1021.65 1021.73 1021.77 1021.77 1021.81 1021.73 1021.69 1021.73 1021.81 1021.93 1022.29 1022.65 1022.93 1023.21 1023.45 1023.65 1023.65 1023.53 1023.61 1023.77 1023.93 1023.81 1023.69 1023.81 1024.01 1024.21 1024.33 1024.01 1023.85 1024.05 1024.01 1024.21
1018.49 1018.57 1018.65 1018.65 1018.73 1018.81 1018.93 1019.09 1019.17 1019.25 1019.37 1019.53 1019.53 1019.73 1019.97 1019.85 1019.81 1019.85 1019.97 1020.09 1020.25 1020.37 1020.45 1020.73 1021.01 1021.13 1021.33 1021.49 1021.65 1021.49 1021.41 1021.49 1021.65 1021.65 1021.61 1021.61 1021.57 1021.57 1021.61 1021.73 1021.89 1022.01 1022.13 1022.33 1022.73 1023.29 1023.85 1023.97 1023.81 1023.81 1024.01 1024.25 1024.33 1024.33 1024.21 1023.97 1024.29 1024.69 1024.53 1024.09 1023.97 1024.09 1024.37
1018.57 1018.65 1018.77 1018.77 1018.89 1018.97 1018.97 1019.05 1019.09 1019.21 1019.29 1019.33 1019.53 1019.69 1019.65 1019.77 1019.77 1019.81 1019.93 1019.97 1020.09 1020.25 1020.33 1020.85 1021.01 1021.17 1021.25 1021.45 1021.69 1021.77 1021.33 1021.37 1021.41 1021.41 1021.49 1021.49 1021.53 1021.53 1021.57 1021.65 1021.81 1021.97 1022.05 1022.57 1022.69 1022.97 1023.33 1023.85 1024.21 1024.17 1024.21 1024.45 1024.77 1024.69 1024.53 1024.57 1024.61 1024.49 1024.37 1024.41 1024.45 1024.45 1024.49
1018.61 1018.73 1018.81 1018.89 1019.01 1019.01 1019.13 1019.21 1019.29 1019.09 1019.01 1019.29 1019.65 1019.93 1020.13 1020.25 1020.13 1019.97 1019.93 1019.97 1020.05 1020.29 1020.41 1021.09 1021.13 1021.25 1021.41 1021.61 1021.85 1022.01 1021.45 1021.25 1021.21 1021.25 1021.37 1021.41 1021.45 1021.45 1021.45 1021.53 1021.49 1021.65 1021.85 1022.21 1022.33 1022.65 1022.93 1023.33 1023.85 1024.17 1024.17 1024.21 1024.65 1024.89 1024.85 1025.01 1025.01 1024.97 1024.89 1024.73 1024.69 1024.57 1024.81
1018.57 1018.81 1018.93 1019.01 1019.05 1019.05 1019.13 1019.17 1019.49 1019.61 1019.73 1019.81 1019.81 1019.93 1019.93 1020.01 1020.09 1020.13 1020.25 1020.29 1020.29 1020.49 1020.69 1021.21 1021.13 1021.17 1021.25 1021.49 1021.73 1021.77 1021.45 1021.49 1021.41 1021.41 1021.49 1021.57 1021.69 1021.65 1021.57 1021.61 1021.57 1021.53 1021.73 1021.89 1022.09 1022.41 1022.69 1023.13 1023.45 1023.81 1024.13 1024.53 1024.77 1024.89 1024.93 1024.89 1024.89 1024.85 1024.89 1024.89 1024.81 1024.89 1025.13
1018.41 1018.77 1018.89 1018.93 1018.93 1018.97 1019.13 1019.17 1019.25 1019.45 1019.53 1019.49 1019.49 1019.49 1019.57 1019.53 1019.73 1019.93 1020.33 1020.45 1020.41 1020.57 1020.93 1021.21 1021.09 1021.01 1021.17 1021.41 1021.69 1021.57 1021.65 1021.69 1021.53 1021.53 1021.69 1021.81 1021.73 1021.65 1021.61 1021.57 1021.53 1021.57 1021.77 1021.93 1022.41 1022.65 1022.69 1022.93 1023.29 1023.73 1024.25 1024.69 1024.89 1025.05 1025.33 1025.77 1025.73 1025.61 1025.41 1025.25 1025.21 1025.33 1025.37
1018.41 1018.41 1018.81 1018.89 1018.77 1018.89 1018.85 1018.97 1019.09 1019.05 1018.97 1019.13 1019.25 1019.41 1019.69 1020.01 1020.29 1020.49 1020.57 1020.65 1020.61 1020.69 1020.97 1021.41 1021.37 1021.21 1021.25 1021.49 1021.45 1021.17 1021.29 1021.25 1021.41 1021.65 1021.81 1021.85 1021.73 1021.73 1021.73 1021.69 1021.65 1021.69 1021.89 1022.17 1022.81 1022.97 1023.13 1023.13 1023.29 1023.69 1024.05 1024.45 1024.69 1024.81 1025.25 1025.69 1025.89 1025.97 1025.97 1025.93 1025.97 1026.01 1026.05
1018.41 1018.41 1019.01 1018.69 1018.77 1018.89 1018.89 1018.93 1019.09 1019.29 1019.09 1019.37 1019.61 1019.89 1020.17 1020.45 1020.65 1020.65 1020.61 1020.49 1020.49 1020.25 1020.77 1021.49 1021.49 1021.37 1021.37 1021.37 1021.01 1020.69 1020.81 1020.97 1021.49 1021.73 1021.93 1022.05 1021.93 1022.01 1022.45 1022.53 1022.13 1022.01 1022.21 1022.73 1023.25 1023.33 1023.53 1023.29 1023.21 1023.57 1023.97 1024.49 1024.97 1025.25 1025.57 1025.81 1025.89 1026.05 1026.21 1026.09 1026.09 1026.17 1026.21
1018.65 1018.61 1018.77 1018.85 1018.97 1019.01 1019.05 1019.05 1019.21 1019.45 1019.33 1019.33 1019.69 1020.09 1020.17 1020.17 1020.49 1020.61 1020.73 1020.81 1020.93 1020.57 1020.69 1021.33 1021.57 1021.37 1021.45 1021.41 1021.05 1020.61 1020.69 1020.89 1021.41 1021.69 1021.81 1022.17 1022.25 1022.25 1022.65 1023.05 1023.05 1022.73 1022.85 1023.41 1023.61 1023.73 1023.77 1023.49 1023.41 1023.69 1024.01 1024.29 1024.61 1024.97 1025.37 1025.61 1025.69 1025.69 1025.69 1025.73 1025.73 1025.81 1025.93
1018.65 1018.61 1018.49 1018.69 1018.73 1018.89 1019.13 1019.13 1019.21 1019.29 1019.37 1019.21 1019.49 1019.81 1020.01 1020.05 1020.21 1020.61 1020.97 1021.05 1021.13 1021.05 1020.81 1020.89 1021.29 1021.33 1021.37 1021.41 1021.25 1020.73 1020.65 1020.85 1021.37 1021.81 1021.81 1021.89 1022.21 1022.53 1022.77 1023.13 1023.69 1023.89 1023.77 1023.77 1023.85 1023.89 1023.89 1023.81 1023.73 1024.09 1024.29 1024.49 1024.81 1025.37 1025.69 1025.73 1025.73 1025.53 1025.49 1025.45 1025.41 1025.53 1025.41
1018.73 1018.65 1018.45 1018.29 1018.53 1018.73 1018.85 1018.89 1019.09 1019.25 1019.33 1019.57 1019.69 1019.89 1019.97 1020.29 1020.53 1020.81 1020.97 1021.05 1020.89 1020.97 1021.01 1020.81 1021.09 1021.21 1021.29 1021.33 1021.33 1021.05 1020.73 1020.89 1021.21 1021.49 1021.77 1022.01 1022.05 1022.45 1022.81 1023.21 1023.65 1024.13 1023.93 1023.97 1024.05 1024.17 1024.21 1024.29 1024.33 1024.37 1024.41 1024.61 1025.09 1025.41 1025.53 1025.37 1025.93 1026.01 1025.49 1025.45 1025.33 1025.17 1024.97
1018.93 1018.73 1018.69 1018.81 1018.37 1018.21 1018.49 1018.73 1018.93 1019.17 1019.45 1019.53 1019.65 1019.73 1020.13 1020.49 1020.57 1020.73 1020.93 1020.97 1020.93 1020.85 1021.05 1021.21 1020.93 1021.17 1021.17 1021.25 1021.33 1021.37 1020.93 1021.09 1021.21 1021.41 1021.77 1022.01 1022.21 1022.53 1022.89 1023.25 1023.77 1024.49 1024.33 1024.29 1024.41 1024.53 1024.69 1024.77 1024.85 1024.85 1025.49 1025.73 1025.85 1025.85 1025.65 1025.53 1025.41 1025.33 1025.17 1025.05 1024.93 1024.77 1024.65
1018.89 1018.81 1018.65 1018.57 1018.45 1017.97 1018.05 1018.21 1018.41 1018.81 1019.13 1019.53 1019.57 1019.65 1019.85 1020.17 1019.89 1019.93 1020.41 1020.69 1020.81 1020.97 1021.09 1021.13 1021.37 1021.21 1021.25 1021.29 1021.49 1021.57 1021.49 1021.53 1021.85 1021.49 1021.53 1021.93 1022.33 1022.77 1023.17 1023.65 1024.37 1024.69 1024.53 1024.65 1024.69 1024.81 1024.93 1025.09 1025.21 1025.65 1025.97 1026.01 1026.01 1025.97 1025.69 1025.29 1025.45 1025.21 1025.05 1024.93 1024.89 1024.65 1024.57
1018.61 1018.61 1018.53 1018.41 1018.29 1018.13 1018.09 1018.01 1018.09 1018.41 1018.49 1018.57 1018.81 1018.93 1019.33 1019.41 1019.17 1019.21 1019.45 1020.29 1020.85 1021.09 1021.29 1021.17 1021.57 1021.69 1021.49 1021.45 1021.57 1021.69 1021.85 1022.01 1022.09 1021.73 1021.81 1022.09 1022.53 1022.97 1023.25 1023.69 1024.37 1024.81 1024.77 1024.93 1025.05 1025.17 1025.25 1025.29 1025.53 1025.85 1025.85 1025.93 1025.93 1025.81 1025.37 1025.25 1025.13 1025.13 1025.13 1024.89 1024.77 1024.61 1024.53
Wind_Speed
6 7 6 5 4 4 4 3 2 2 2 2 3 3 2 2 2 3 3 3 3 3 2 3 3 2 2 2 1 1 2 2 3 2 3 3 4 4 2 2 3 2 2 2 1 1 2 4 4 5 7 7 8 8 7 5 3 2 4 4 4 4 4
7 7 6 5 5 4 5 3 3 2 2 3 3 3 3 3 2 2 2 3 2 3 2 3 3 3 3 3 3 3 3 3 0 1 2 3 2 3 4 3 3 3 4 2 2 1 3 6 5 4 5 6 9 8 7 7 7 8 7 6 7 7 7
7 6 6 6 5 4 6 4 3 2 2 3 4 4 3 3 3 3 2 3 3 2 2 3 3 3 2 3 3 2 2 2 2 2 4 4 3 3 4 5 4 4 4 1 3 2 3 2 6 6 4 5 8 7 6 7 8 8 8 7 8 8 8
9 9 8 6 6 5 5 4 3 2 2 3 3 4 4 3 3 3 3 3 3 2 2 2 2 3 3 2 2 3 2 2 2 4 4 4 4 5 5 5 3 2 2 3 4 3 3 5 7 7 6 7 9 8 7 8 8 9 9 8 8 8 7
10 8 9 9 8 7 6 5 3 3 3 3 3 4 4 4 3 3 3 3 3 2 3 2 2 3 2 2 2 2 3 3 3 4 4 5 4 4 4 3 3 4 4 4 3 3 5 6 7 8 7 7 8 8 6 8 10 10 10 9 9 9 8
7 8 8 8 7 7 6 6 5 4 3 3 3 4 4 4 3 3 3 3 3 4 3 3 3 3 2 2 3 4 4 4 3 4 5 4 4 5 5 3 3 3 4 2 1 2 3 5 7 8 6 5 7 6 5 5 7 8 8 9 8 8 8
6 6 7 8 6 6 5 6 6 5 4 4 3 3 3 3 4 4 4 4 5 4 4 4 4 4 3 2 3 4 4 3 3 5 5 5 5 5 4 5 4 4 3 2 2 2 3 5 6 7 8 6 6 6 5 5 4 5 8 8 8 8 8
6 6 6 6 7 6 4 5 5 5 5 4 3 3 3 4 4 4 4 4 4 4 4 4 3 4 4 3 4 4 4 3 4 4 4 4 4 4 5 5 5 4 4 3 3 3 2 1 3 7 8 9 6 5 6 5 7 8 6 7 7 8 8
5 6 6 6 5 6 6 6 6 6 5 5 4 4 4 4 4 4 4 4 4 4 4 4 4 3 4 4 4 4 4 3 3 5 4 5 6 6 5 4 5 5 4 4 4 4 4 3 3 4 5 6 8 7 5 5 5 6 6 5 8 9 7
6 8 8 9 8 5 4 3 4 5 7 5 4 4 5 4 4 4 4 4 3 4 4 4 4 4 3 4 4 4 4 3 4 4 3 5 4 4 4 4 5 5 4 4 4 4 4 3 3 2 2 4 4 6 6 6 5 4 6 6 4 7 7
4 5 8 7 7 6 5 4 3 4 6 5 5 4 4 4 4 4 4 4 3 3 4 4 4 4 4 4 4 4 3 2 4 3 3 4 3 3 3 4 4 5 2 3 3 2 3 3 4 4 3 2 1 3 4 6 5 3 4 5 5 5 6
5 4 6 6 7 6 5 5 6 3 6 5 6 5 5 4 4 3 3 3 3 4 4 4 4 4 3 4 3 3 3 2 4 4 3 2 2 3 4 4 3 3 2 3 3 3 2 3 4 4 5 5 4 3 4 6 6 3 2 4 4 4 5
6 6 5 6 6 6 5 4 5 5 5 5 4 5 5 5 4 4 3 3 3 3 4 4 3 3 3 3 3 3 3 2 4 4 3 2 2 3 4 4 3 3 2 3 4 3 4 3 3 4 4 5 5 4 3 3 6 6 3 3 4 4 4
7 6 6 5 5 5 5 4 3 4 6 5 5 5 5 5 4 4 4 3 3 3 3 3 2 2 2 2 2 2 2 2 3 3 2 3 2 2 3 4 3 2 1 4 4 4 4 4 4 4 4 4 4 4 4 5 6 7 4 3 3 3 3
7 6 6 5 4 3 4 3 3 5 6 5 4 5 6 5 4 4 4 4 4 4 4 4 3 2 1 2 2 2 1 1 1 2 2 3 3 1 2 3 4 3 1 3 2 4 4 4 4 5 4 4 5 4 2 4 5 5 5 3 3 2 3
6 7 6 5 5 4 4 4 3 5 6 5 5 4 5 5 5 4 4 4 4 4 4 5 3 3 2 1 1 1 0 1 2 2 3 4 3 3 3 3 4 3 3 3 2 2 2 2 3 5 5 4 5 4 4 4 5 5 5 4 1 3 2
6 7 6 5 5 4 4 5 5 4 5 5 6 5 6 6 6 4 3 3 3 4 4 4 4 3 3 2 1 1 2 2 3 4 4 4 4 4 4 4 4 4 4 4 3 3 2 2 3 4 5 4 4 4 3 2 3 4 4 4 2 2 2
5 6 6 6 7 6 5 6 6 6 6 6 5 6 4 5 5 5 4 4 3 4 4 4 3 3 2 3 3 2 3 3 3 4 6 6 5 5 5 5 5 5 5 5 4 4 4 4 3 4 4 4 4 4 3 2 3 3 4 4 4 2 1
5 6 6 6 7 7 6 6 7 6 7 7 6 5 7 5 5 5 4 4 3 3 3 2 2 2 1 2 3 2 3 4 4 4 5 7 9 7 6 6 6 6 6 6 5 4 4 5 4 3 4 4 4 4 5 4 3 4 4 4 3 3 2
5 5 6 7 6 7 7 7 8 8 6 4 5 5 4 5 6 6 6 5 5 5 4 2 2 3 3 4 3 4 6 5 5 5 6 7 9 9 6 6 5 5 5 5 5 6 5 5 3 4 3 4 4 4 4 4 4 4 4 3 3 2 2
3 3 3 4 5 7 7 7 6 6 6 5 5 5 6 6 4 4 4 5 3 3 3 3 4 4 3 4 4 6 6 6 6 6 7 8 10 10 9 7 5 5 5 3 3 4 5 5 4 4 3 2 3 4 4 4 4 3 3 2 1 2 1
1 1 2 4 5 6 5 5 5 6 6 5 5 6 6 5 5 5 3 3 3 3 2 3 3 3 3 4 5 5 5 5 5 6 7 8 9 9 7 6 6 8 8 9 10 8 9 5 5 5 4 4 4 4 4 3 3 2 2 1 2 1 1
2 2 3 4 4 5 5 5 5 6 6 5 4 3 5 4 4 4 3 3 3 3 3 3 4 3 3 2 2 3 3 5 6 6 7 7 7 6 6 6 5 9 10 11 11 11 11 11 9 7 8 6 5 4 3 3 2 1 1 0 2 2 2
2 3 3 4 5 5 5 4 5 5 5 5 5 5 4 4 5 4 5 5 5 4 4 3 5 6 8 7 4 4 4 5 5 6 6 6 6 5 5 5 4 5 7 9 9 10 8 11 9 6 8 6 3 4 5 4 3 1 0 1 1 1 2
1 2 2 3 4 5 5 6 6 6 6 7 6 5 6 6 5 3 3 4 5 4 2 3 4 4 4 5 5 4 4 4 4 5 5 5 5 4 3 2 2 3 4 6 6 7 6 6 7 9 9 7 6 6 5 3 3 2 1 1 1 1 2
2 2 2 2 2 3 4 5 6 6 6 6 5 7 7 5 4 4 4 5 3 2 2 4 3 2 2 3 4 5 4 4 4 4 4 4 4 3 3 2 2 3 2 7 6 6 7 5 5 9 10 9 7 6 7 9 8 2 0 0 1 2 1
1 1 2 2 2 3 2 2 3 3 4 4 4 3 2 3 5 5 4 4 3 2 2 4 3 4 3 3 3 5 4 2 2 2 2 2 3 3 3 3 3 2 2 4 5 6 7 7 7 7 6 5 4 5 8 8 7 7 4 1 1 2 1
1 1 2 2 3 4 4 3 4 2 1 2 4 4 5 6 4 4 4 3 2 2 1 3 3 4 5 5 6 3 1 1 1 1 1 2 2 2 3 2 2 2 2 3 4 6 9 8 7 6 6 4 4 4 4 3 2 1 0 0 1 1 1
1 0 2 3 3 4 4 5 4 4 4 4 3 4 3 4 4 4 3 3 3 3 1 3 2 2 5 7 7 4 3 2 2 1 1 2 2 2 1 1 1 1 1 2 6 7 7 8 8 7 6 5 4 4 5 5 7 7 6 3 3 3 2
1 1 1 2 2 3 5 4 4 2 4 4 4 3 3 3 3 3 3 2 2 3 3 0 3 3 6 9 7 3 4 3 3 3 3 2 3 3 3 2 1 1 2 3 7 8 9 8 7 7 6 5 4 4 4 3 6 7 7 7 7 6 5
2 2 3 4 4 3 2 2 3 2 4 5 4 3 3 3 2 1 2 2 1 3 4 3 2 4 7 10 6 5 4 4 4 3 3 3 3 4 7 10 4 3 4 5 8 9 8 6 6 6 6 6 5 3 3 2 1 2 3 4 4 2 1
3 4 3 1 1 3 4 4 3 3 3 4 5 5 4 4 3 2 2 3 3 1 3 4 4 5 7 8 5 4 4 4 4 4 4 4 4 5 6 9 11 8 7 8 9 8 3 1 4 4 5 5 4 4 3 3 3 3 2 3 4 4 5
4 2 4 4 4 4 4 3 5 5 4 4 5 4 4 4 4 3 1 1 1 0 1 2 4 6 7 6 4 2 4 5 5 5 4 5 6 6 7 7 8 10 11 11 11 10 9 8 5 4 3 3 3 3 3 2 1 1 1 1 1 2 3
5 5 3 3 4 3 5 5 5 4 5 3 4 4 4 4 3 3 2 1 1 1 2 1 3 5 8 6 5 3 3 4 5 5 5 5 6 6 6 6 7 8 12 12 12 12 11 10 7 5 3 3 3 5 2 1 2 3 2 1 2 3 4
5 5 4 4 4 5 4 5 5 5 3 4 5 5 4 4 4 3 2 2 2 2 3 5 2 4 6 7 5 1 1 4 5 6 6 5 6 6 6 6 6 6 11 12 12 12 11 10 9 6 7 8 6 3 2 1 1 1 2 3 3 4 4
4 4 5 4 6 6 5 6 6 6 6 6 6 7 7 6 5 4 3 3 2 2 2 2 5 2 6 7 6 3 2 5 3 4 6 6 6 7 6 7 7 8 11 11 11 11 11 11 9 7 7 7 6 3 3 0 1 2 3 4 4 5 5
6 4 5 5 6 8 6 6 6 7 8 8 7 6 4 3 4 4 4 3 2 2 1 1 3 2 5 8 8 8 8 7 4 2 4 6 6 7 7 7 7 10 11 12 12 11 11 9 8 9 8 7 5 2 1 1 2 3 4 4 5 5 6
Wind_Direction
125 129 128 111 100 108 99 84 88 64 36 45 72 75 70 77 84 108 117 121 119 101 99 90 97 109 124 125 131 137 140 151 159 162 150 164 211 157 165 96 75 43 42 63 352 216 130 140 107 91 69 54 53 45 38 34 35 33 21 29 44 59 59
116 122 123 122 119 116 104 90 78 76 72 55 57 73 71 70 72 77 80 89 82 80 85 100 107 106 109 131 141 138 134 135 159 132 153 135 186 156 170 121 130 93 61 20 42 185 147 136 108 103 98 85 65 48 48 53 57 56 51 43 46 42 43
122 123 129 126 123 121 106 97 94 89 83 85 72 64 72 76 79 83 79 77 80 75 51 69 89 94 96 103 104 107 125 124 123 100 86 112 125 136 176 148 147 130 102 93 82 140 133 127 136 125 104 93 71 51 48 52 64 70 68 61 63 59 54
136 138 134 129 126 126 117 107 100 87 62 76 84 74 59 66 78 81 84 81 70 64 72 78 71 74 76 75 81 81 73 78 100 113 116 106 111 122 135 153 157 154 160 137 142 156 145 129 119 113 104 92 92 79 59 66 70 72 72 68 66 58 53
148 149 145 141 142 135 128 120 115 111 95 87 82 85 65 50 57 64 76 83 78 70 67 49 58 81 81 89 88 82 79 70 86 97 103 111 112 113 118 120 113 117 119 125 124 156 154 140 131 125 121 116 100 94 85 74 68 69 62 60 60 60 56
150 147 140 136 140 136 135 134 139 125 127 109 90 89 68 50 56 64 55 68 67 46 36 37 54 52 78 85 85 82 81 82 83 97 103 97 97 102 102 85 91 91 89 73 118 150 140 144 138 131 121 118 114 111 105 98 87 69 60 60 58 53 55
151 144 138 139 138 134 140 141 140 134 123 114 109 86 72 66 62 52 51 61 60 58 45 39 36 31 23 69 82 81 78 71 80 86 93 91 83 88 103 106 91 89 81 72 88 113 136 159 155 141 132 116 118 116 104 95 88 93 68 56 54 57 55
145 143 138 136 138 137 140 139 135 132 128 129 116 106 99 86 79 72 64 65 65 64 59 53 46 43 27 42 62 63 63 56 68 78 82 88 90 87 84 91 97 89 79 74 67 68 81 101 145 145 144 133 120 111 111 99 87 64 83 66 47 56 54
151 140 132 132 134 142 152 153 149 140 133 130 124 121 108 108 104 100 96 91 94 90 85 79 70 63 44 54 64 62 65 31 70 78 85 86 85 82 81 82 91 84 75 77 76 67 61 62 110 156 166 151 142 133 129 110 92 75 38 75 71 48 50
169 150 143 143 143 147 143 159 156 148 137 137 132 127 123 122 126 129 126 126 120 115 107 100 94 84 78 74 76 75 72 55 66 67 67 91 95 101 97 83 93 97 87 78 79 78 73 61 65 78 216 190 170 148 150 123 97 97 58 28 62 54 41
172 141 137 147 141 153 158 149 156 165 145 138 135 132 129 129 126 135 136 133 125 114 106 104 97 97 96 86 85 84 78 84 95 85 70 83 82 88 100 104 105 108 95 89 80 54 69 68 65 62 56 31 283 185 144 134 107 65 88 64 43 53 42
159 153 151 151 150 158 166 154 167 204 125 134 139 141 140 135 129 121 126 129 123 112 105 99 104 98 98 101 94 96 102 114 105 105 94 87 83 101 101 94 90 98 95 95 88 80 67 70 76 75 66 60 56 61 117 127 127 79 23 80 68 52 51
152 152 169 158 173 156 143 184 158 159 133 134 138 139 139 139 140 139 127 125 127 122 118 112 108 106 101 98 111 110 109 123 115 116 123 126 128 123 113 102 83 89 102 117 105 87 79 57 43 64 63 66 62 51 87 108 109 115 67 65 84 78 57
156 158 168 172 176 162 138 168 181 146 130 133 145 149 141 137 136 131 128 112 102 104 105 109 107 118 123 119 111 96 115 141 135 128 130 131 137 134 119 110 104 88 62 115 118 120 109 105 97 82 77 79 75 53 64 101 114 118 107 61 67 70 41
162 165 164 167 185 164 128 144 156 132 126 134 158 151 142 134 138 134 123 121 117 109 103 97 92 72 78 129 135 136 146 156 188 153 174 158 143 131 135 129 123 120 71 103 121 127 123 126 115 107 96 89 89 85 37 89 99 120 123 135 103 97 75
162 159 159 167 186 180 145 138 156 145 142 145 154 157 145 142 140 144 143 145 140 127 119 110 107 111 101 72 38 50 89 256 237 220 215 203 185 167 169 153 145 141 145 135 116 98 112 114 104 102 103 96 96 96 98 102 120 116 129 117 140 114 91
165 162 163 167 181 189 166 153 158 158 153 158 154 158 153 146 141 145 150 154 152 140 128 126 127 131 147 139 98 359 345 304 277 263 251 237 217 201 196 175 164 164 161 152 150 146 142 124 117 113 113 106 105 98 93 107 107 124 141 138 125 97 102
171 171 167 167 177 182 178 159 155 163 168 176 165 143 139 140 146 154 161 165 142 128 138 142 149 162 169 135 137 175 261 270 269 286 289 284 256 229 210 211 180 179 177 167 164 168 159 157 139 134 127 122 119 116 106 93 99 116 129 121 121 98 92
192 190 178 176 181 182 174 165 161 174 186 182 164 163 153 155 155 158 159 176 167 151 149 151 162 174 180 157 160 159 219 222 243 253 263 274 266 242 232 220 194 189 193 189 180 168 165 162 152 149 142 138 129 129 119 111 107 98 97 98 111 125 89
193 194 190 189 184 179 176 174 174 177 182 172 175 170 159 162 170 173 181 172 179 171 163 181 208 184 181 187 195 209 229 223 215 205 224 239 262 267 247 219 205 198 218 213 187 174 169 164 170 158 143 140 137 135 131 125 120 115 108 115 102 66 108
194 206 198 182 179 181 178 176 180 161 162 176 189 188 180 182 169 180 180 186 175 160 166 201 221 211 208 209 210 216 225 231 234 224 213 228 234 233 227 220 197 202 222 243 220 193 174 175 168 152 141 153 148 146 132 133 133 131 133 124 92 116 86
153 173 179 178 178 181 179 170 163 163 177 187 190 194 191 185 165 172 176 189 181 177 202 225 231 216 214 212 219 231 235 244 247 252 249 239 228 228 227 214 192 183 190 203 214 194 193 169 164 158 159 180 173 153 149 148 137 130 136 140 130 137 156
171 158 160 171 169 167 174 170 171 173 181 184 183 199 197 190 184 175 183 201 201 167 199 216 202 186 225 232 217 236 245 249 248 248 250 250 244 238 233 227 213 188 186 200 211 206 191 175 184 172 171 180 171 166 157 137 115 81 13 19 49 14 353
172 176 161 154 154 167 174 174 176 178 179 177 185 200 209 195 207 200 196 198 199 202 206 203 156 188 194 204 224 226 233 239 240 245 245 248 257 253 240 224 224 176 183 182 193 206 198 181 181 159 148 185 169 167 158 137 129 158 333 4 66 2 5
218 183 184 180 169 169 172 182 187 187 182 190 196 189 196 205 209 201 201 208 213 215 216 114 176 191 198 190 205 234 234 237 232 240 246 250 257 264 265 240 199 207 209 196 179 175 175 186 167 155 141 110 83 47 30 91 148 167 198 281 325 25 327
252 229 217 214 183 183 190 194 193 191 195 190 185 198 202 199 196 199 209 214 219 211 240 111 154 160 209 224 211 223 232 221 227 228 235 248 266 276 280 264 215 216 172 151 172 162 161 140 115 125 119 105 80 81 73 55 43 33 138 280 314 295 303
281 195 205 215 209 215 212 244 269 239 207 191 193 169 181 218 209 196 194 202 195 154 167 99 127 137 152 177 179 214 244 243 258 288 308 316 307 308 305 298 284 235 176 175 183 166 163 143 142 140 138 129 101 69 62 62 64 47 27 5 281 295 64
329 143 180 189 195 200 200 195 213 222 178 212 197 174 179 184 171 152 146 150 135 129 98 81 150 150 146 149 139 181 209 278 320 320 335 332 324 314 300 298 282 271 196 188 172 163 162 153 144 132 122 108 96 71 66 59 46 45 74 248 312 0 48
109 89 172 177 195 194 186 191 175 163 165 154 129 125 106 86 87 77 63 79 100 106 83 7 322 182 149 127 135 148 155 187 190 131 95 50 30 25 2 323 288 266 187 168 124 146 148 143 143 136 122 114 102 87 71 50 35 28 25 32 46 40 34
23 87 218 134 166 181 164 152 134 132 108 93 96 89 78 71 68 83 91 95 120 120 124 192 277 216 157 148 157 158 158 160 125 103 71 60 58 45 37 38 51 75 122 113 116 128 131 147 142 140 138 133 130 134 112 79 42 33 33 52 57 54 46
189 182 204 188 175 168 121 95 121 133 129 136 128 117 116 103 91 100 138 123 69 113 120 125 201 175 168 178 199 153 155 138 115 103 95 64 66 63 47 27 22 97 104 102 117 125 148 167 147 146 144 136 135 132 131 115 119 81 63 64 53 6 307
195 193 206 190 178 156 164 163 145 154 152 145 134 142 154 137 132 113 66 64 31 44 113 127 134 156 164 185 202 150 152 141 130 120 115 96 78 81 74 52 39 54 78 91 95 98 99 165 136 137 139 149 156 159 139 158 163 167 164 189 197 190 192
297 244 217 178 179 178 171 170 171 170 168 162 149 145 138 120 119 111 102 105 132 170 119 109 93 133 150 167 238 193 156 150 140 135 129 120 110 94 88 83 65 69 86 90 88 85 75 67 101 107 125 148 154 132 140 153 86 5 183 262 270 246 269
267 267 264 216 182 174 170 176 166 170 164 153 146 144 136 128 128 137 142 168 150 100 39 66 82 120 139 146 155 203 160 147 138 140 133 128 122 115 104 91 94 87 91 87 86 83 81 73 73 94 86 90 65 79 94 150 123 243 248 254 264 274 279
281 267 248 265 203 182 180 164 162 163 157 153 159 154 145 152 154 138 134 109 71 56 53 11 89 100 126 139 150 271 203 143 144 138 134 126 122 117 113 115 109 91 92 93 90 87 83 76 66 80 72 80 86 94 121 119 199 251 285 287 301 299 298
287 265 263 235 243 227 179 174 169 168 163 172 170 165 168 171 165 142 131 109 84 62 36 56 3 104 127 137 136 131 111 139 143 156 144 141 129 122 118 112 109 107 100 96 93 93 94 98 88 92 107 107 103 140 227 111 334 296 312 311 307 305 306
303 278 254 242 228 243 225 198 178 182 183 177 174 167 171 180 156 148 142 120 102 93 75 58 43 24 136 132 129 125 122 118 146 126 124 129 123 123 130 125 118 114 101 97 92 85 77 76 94 103 100 103 130 197 340 332 318 334 312 312 310 312 312